This is the latest recevied weather packets stored in our database for station/object K5WNG. If no packets are shown the sender has not sent any weather packets the latest 10 day(s).
| Time | Temp. | Humidity | Pressure | Rain* | Wind** | Luminosity | Snow |
|---|---|---|---|---|---|---|---|
| 1777921818 | 27.22° C | 62% | 1012.2 hPa | 0 mm | - | 846 W/m² | - |
| 1777921518 | 27.22° C | 62% | 1012.3 hPa | 0 mm | - | 623 W/m² | - |
| 1777921222 | 27.22° C | 62% | 1012.3 hPa | 0 mm | - | 716 W/m² | - |
| 1777920921 | 27.22° C | 61% | 1012.3 hPa | 0 mm | - | 645 W/m² | - |
| 1777920617 | 26.67° C | 62% | 1012.3 hPa | 0 mm | - | 726 W/m² | - |
| 1777920318 | 26.67° C | 62% | 1012.4 hPa | 0 mm | - | 782 W/m² | - |
| 1777920018 | 26.11° C | 62% | 1012.4 hPa | 0 mm | - | 790 W/m² | - |
| 1777919718 | 26.11° C | 64% | 1012.5 hPa | 0 mm | - | 697 W/m² | - |
| 1777919418 | 26.11° C | 63% | 1012.7 hPa | 0 mm | - | 514 W/m² | - |
| 1777919118 | 26.67° C | 62% | 1012.8 hPa | 0 mm | - | 774 W/m² | - |
| 1777918818 | 26.11° C | 63% | 1013 hPa | 0 mm | - | 943 W/m² | - |
| 1777918521 | 26.11° C | 63% | 1013.1 hPa | 0 mm | - | 960 W/m² | - |
| 1777918216 | 26.11° C | 64% | 1013 hPa | 0 mm | - | 738 W/m² | - |
| 1777917916 | 26.11° C | 63% | 1013 hPa | 0 mm | - | 771 W/m² | - |
| 1777917619 | 25.56° C | 64% | 1013 hPa | 0 mm | - | 1015 W/m² | - |
| 1777917319 | 25° C | 66% | 1013.1 hPa | 0 mm | - | 847 W/m² | - |
| 1777917016 | 25° C | 66% | 1013.2 hPa | 0 mm | - | 549 W/m² | - |
| 1777916716 | 25° C | 65% | 1013.3 hPa | 0 mm | - | 482 W/m² | - |
| 1777916419 | 25° C | 66% | 1013.5 hPa | 0 mm | - | 833 W/m² | - |
| 1777916116 | 24.44° C | 67% | 1013.7 hPa | 0 mm | - | 717 W/m² | - |
| 1777915816 | 25° C | 65% | 1013.8 hPa | 0 mm | - | 682 W/m² | - |
| 1777915516 | 24.44° C | 66% | 1013.9 hPa | 0 mm | - | 969 W/m² | - |
| 1777915216 | 23.89° C | 67% | 1014 hPa | 0 mm | - | 885 W/m² | - |
| 1777914917 | 23.89° C | 68% | 1014.1 hPa | 0 mm | - | 667 W/m² | - |
| 1777914616 | 23.89° C | 68% | 1014.1 hPa | 0 mm | - | 364 W/m² | - |
* Rain latest hour (hover to see other rain measurements)
** Current wind speed in m/s (hover to see current wind gust speed)